ECMWFNIL_925_spd_021.txt.gz
Wind_Speed
26 26 26 26 26 26 26 26 25 25 24 24 24 23 23 22 21 19 17 15 13 13 14 15 15 15 16 16 17 19 21 23 24 25 26 27 28 28 29 30 33 35
25 24 24 24 25 24 25 24 24 24 24 24 24 23 23 24 23 22 21 19 17 16 15 15 15 15 15 16 17 18 19 21 22 23 25 27 28 29 29 29 30 32
22 22 22 23 23 22 22 22 22 22 22 22 23 23 23 23 24 23 23 23 22 20 18 18 17 16 16 16 17 18 19 20 21 22 24 26 27 28 30 30 30 30
19 19 20 20 20 20 20 20 21 21 21 22 22 22 22 22 22 23 23 23 23 23 22 21 20 18 17 16 16 18 19 21 21 22 24 25 25 27 29 29 31 31
16 17 18 18 18 18 18 19 20 20 21 21 22 22 22 22 23 23 23 23 23 23 23 23 22 21 19 18 17 18 19 20 21 22 24 26 25 26 27 28 30 32
14 15 16 17 17 17 18 19 20 20 21 21 21 22 22 22 23 24 24 24 23 23 23 23 23 22 21 20 19 18 18 20 21 21 24 26 26 27 27 28 29 31
13 15 16 17 17 17 17 19 20 21 22 22 23 23 23 23 23 23 24 24 24 24 24 24 23 23 23 22 22 21 20 19 20 20 22 24 26 27 27 28 29 31
12 14 17 19 19 19 18 19 21 22 24 24 26 26 26 26 26 25 25 25 25 25 26 26 25 24 24 24 24 24 23 22 21 20 21 23 24 26 27 28 29 31
12 14 17 20 21 21 20 19 21 23 25 26 27 28 28 28 28 28 29 28 28 28 28 28 27 26 26 25 25 25 25 25 24 23 23 23 23 25 26 26 28 30
18 19 21 22 22 22 21 20 21 23 24 26 27 29 30 30 30 30 31 31 31 31 31 31 30 29 28 27 26 26 26 26 26 26 26 26 26 25 25 25 27 29
23 24 25 26 26 26 26 24 24 25 26 26 27 29 30 31 31 31 32 32 32 32 33 33 33 32 31 30 29 28 27 28 28 28 28 28 28 28 27 26 27 28
25 27 28 29 29 29 29 29 28 29 29 29 30 31 32 32 32 33 33 33 33 34 34 34 34 34 33 33 33 31 30 29 29 30 30 30 30 30 29 29 28 29
25 26 28 29 30 30 30 30 30 31 32 33 33 33 34 35 35 35 35 34 35 35 35 35 35 36 36 36 35 34 32 31 31 31 31 31 32 32 32 32 31 31
23 25 27 28 30 30 30 30 31 32 33 34 35 35 36 37 37 38 38 37 37 36 36 36 36 37 38 37 36 36 34 34 34 34 33 33 34 34 34 34 34 34
24 26 28 29 30 31 31 32 32 33 34 35 36 37 37 38 39 40 40 40 40 39 39 38 38 38 39 37 36 36 36 37 37 37 37 36 36 36 36 35 35 35
27 28 30 31 31 32 32 33 33 35 36 37 37 37 38 39 39 40 40 41 42 43 43 42 41 41 41 41 37 35 36 37 37 38 38 37 37 38 38 38 37 37
29 29 30 31 31 32 33 33 34 35 37 38 38 38 38 38 38 40 41 42 42 43 44 44 44 45 46 44 39 35 35 37 38 38 39 38 37 38 38 39 39 38
28 28 29 30 30 31 32 33 34 35 36 37 36 36 37 38 39 41 42 43 42 42 44 45 46 48 48 44 39 37 36 37 38 39 39 39 39 39 39 39 38 39
26 26 28 28 29 29 30 32 33 34 35 34 34 36 37 39 41 41 42 42 41 41 43 44 46 50 49 43 38 37 37 37 38 39 39 40 40 40 41 41 40 39
24 25 26 26 27 27 29 31 32 33 34 34 35 37 38 39 40 41 41 42 41 41 41 43 46 49 47 41 38 37 37 37 38 39 41 42 42 42 42 42 43 42
23 23 24 26 27 29 30 31 31 32 33 34 34 36 37 38 39 40 41 42 41 40 40 42 46 46 43 40 39 39 38 38 38 39 40 42 44 45 44 43 43 43
22 24 26 28 30 30 31 32 32 32 33 32 33 35 36 36 37 38 39 40 41 39 39 41 45 44 40 38 39 39 38 38 38 38 39 41 43 44 45 45 44 43
23 25 28 29 30 30 32 33 32 33 33 32 32 35 36 35 35 36 37 38 39 39 38 40 44 43 38 37 39 38 39 39 39 39 40 41 42 43 43 44 44 43
24 25 26 28 30 31 33 33 33 33 33 32 31 33 35 35 35 36 39 38 38 39 38 38 43 43 39 37 39 39 38 39 39 39 39 40 42 44 43 43 45 44
23 24 25 27 30 31 32 32 33 33 33 32 31 32 34 36 34 35 40 40 38 38 38 38 42 45 40 37 38 37 36 36 36 36 36 37 38 39 40 41 44 45
23 24 25 26 28 30 31 31 31 32 32 32 33 33 34 36 35 35 40 42 39 38 39 39 40 42 39 34 34 35 34 33 34 34 34 35 36 37 39 42 44 45

ECMWFNIL_925_spd_024.txt.gz
Wind_Speed
24 24 23 23 23 22 22 22 22 22 22 22 22 22 22 22 21 21 22 21 21 22 22 22 21 21 20 19 18 17 18 18 18 18 18 19 19 20 21 21 21 22
22 21 21 20 20 20 20 20 19 20 20 20 20 20 20 21 21 21 21 21 21 21 21 21 21 21 21 21 20 19 19 19 19 19 20 20 20 21 21 21 22 22
21 20 19 18 17 17 17 17 18 18 18 19 20 20 21 21 21 21 21 21 21 21 21 22 22 22 22 22 21 21 20 21 21 21 21 21 21 22 22 22 22 22
18 18 17 16 15 15 16 16 18 19 19 20 20 21 21 22 22 23 23 23 23 23 23 23 23 23 23 23 23 23 23 22 22 22 22 22 22 23 23 23 24 24
16 15 15 15 13 13 15 16 18 20 21 21 21 22 22 23 24 24 25 25 25 25 25 25 25 24 24 24 24 24 25 25 24 24 25 24 24 23 23 24 25 26
13 14 14 15 14 14 15 15 16 19 20 21 21 22 22 23 23 24 25 26 26 27 28 28 28 28 27 27 26 26 26 26 26 26 26 27 27 27 25 25 26 27
12 13 15 15 15 16 16 16 16 18 20 20 21 22 23 23 23 23 24 25 25 26 27 28 29 30 30 30 30 30 29 28 28 28 28 28 29 29 29 28 28 28
13 14 16 17 17 18 18 18 18 19 20 21 22 23 24 24 25 25 25 26 26 26 27 27 28 29 30 31 32 32 32 32 31 30 30 31 30 31 30 30 30 30
14 15 17 18 19 20 20 20 20 21 21 22 23 24 24 25 26 27 28 28 29 29 29 30 31 31 31 32 32 33 34 35 34 33 32 32 32 33 32 31 31 31
15 16 18 19 20 21 22 22 22 23 23 23 24 25 26 27 28 29 30 31 31 32 33 33 34 34 34 34 34 33 34 35 36 35 34 34 33 34 34 33 33 34
15 18 20 21 22 22 23 23 24 24 25 25 27 28 29 30 31 32 32 33 33 34 34 35 35 35 36 36 35 34 33 33 34 34 34 35 35 35 35 35 35 36
15 18 21 22 22 22 23 23 24 25 26 27 28 30 32 33 34 35 35 35 35 35 34 35 35 35 35 35 35 33 32 33 33 33 33 34 35 35 36 36 36 37
16 18 22 24 24 23 23 23 24 25 26 27 29 31 33 35 36 37 37 36 36 36 35 35 35 36 36 35 33 32 31 31 33 33 34 34 35 35 36 36 36 37
15 17 21 24 25 24 24 24 25 27 28 29 30 32 34 35 36 37 37 37 36 36 36 37 37 39 38 34 32 31 30 31 32 33 34 35 36 36 37 37 37 37
14 17 21 24 25 25 25 26 27 28 30 31 33 34 35 36 36 35 35 36 37 37 38 38 39 40 39 34 31 32 32 32 32 32 33 35 36 38 39 39 39 39
15 18 22 25 26 25 26 27 28 30 31 33 35 36 37 37 37 36 35 35 36 38 39 39 39 40 39 35 32 31 32 33 34 34 34 35 37 38 40 41 40 40
17 21 25 27 26 26 27 28 29 31 33 35 36 37 37 37 37 37 37 36 35 37 38 39 40 40 36 33 32 31 31 33 35 37 37 37 37 38 40 41 41 41
20 24 26 27 27 27 28 29 31 33 34 36 36 37 37 37 37 37 38 37 35 36 38 39 40 38 33 31 32 31 31 31 34 37 39 40 40 39 40 41 41 42
21 24 25 26 26 27 29 31 33 34 35 35 36 36 36 37 37 37 38 36 34 34 37 39 39 35 31 31 32 32 32 32 34 37 40 41 43 42 42 42 41 41
21 22 23 24 26 27 30 31 32 33 33 33 35 35 36 37 38 38 37 36 33 33 35 38 37 33 30 32 33 33 33 33 34 36 36 37 39 39 40 41 40 39
20 21 22 24 26 28 29 30 30 31 32 32 33 34 35 36 37 37 37 36 34 32 35 38 37 31 30 33 33 33 33 33 33 33 34 35 37 36 37 39 40 41
19 21 23 25 26 27 28 28 29 30 30 30 32 33 34 34 35 35 35 35 35 33 34 39 39 32 30 32 32 31 33 32 32 33 34 35 36 36 35 36 37 38
19 21 23 25 25 26 27 28 28 29 29 29 30 33 33 33 34 35 33 33 35 34 33 38 40 34 29 31 32 32 32 32 31 32 32 33 34 34 33 33 33 33
20 21 22 23 24 24 26 26 27 28 28 28 29 31 33 33 33 34 34 32 33 34 33 35 39 35 30 31 33 32 32 32 31 31 31 32 33 33 32 33 33 32
19 20 20 21 23 23 24 25 26 27 28 28 28 30 32 33 32 33 34 32 32 34 33 32 36 37 33 32 33 31 30 31 31 31 31 31 32 33 32 32 33 33
17 18 18 20 21 22 23 23 25 26 27 28 29 30 32 33 32 32 34 34 33 33 33 31 34 37 34 31 31 30 30 30 31 32 33 33 33 34 35 34 33 33

ECMWFNIL_925_spd_030.txt.gz
Wind_Speed
19 18 19 19 19 18 17 16 16 16 16 16 16 16 15 15 14 14 14 15 15 15 15 16 16 16 16 17 17 18 18 18 17 17 17 16 16 16 15 15 15 15
17 17 17 17 17 16 15 14 14 14 14 14 14 13 13 13 13 13 13 14 15 15 15 16 16 16 17 17 17 18 18 19 19 19 20 19 19 19 18 18 18 18
15 15 14 14 14 14 13 13 12 12 12 12 12 12 13 13 14 15 15 16 17 17 18 18 19 19 19 19 20 20 20 20 20 20 20 21 21 21 21 21 21 21
13 13 13 13 13 12 11 11 11 11 11 11 12 13 13 14 15 16 17 18 19 20 20 21 22 22 23 23 23 23 23 23 23 23 23 22 22 22 22 23 23 23
12 12 11 11 10 9 8 8 8 9 9 9 10 11 12 13 14 16 17 18 19 20 21 22 22 23 24 24 24 25 25 26 26 26 27 27 26 26 25 24 24 25
10 10 9 9 8 7 6 6 6 6 7 8 8 10 12 13 14 16 17 18 20 21 21 22 23 23 24 24 24 24 25 25 25 26 26 27 28 28 28 28 27 28
9 9 9 8 7 6 5 6 6 6 7 8 10 11 13 15 17 18 20 21 21 22 23 23 24 24 25 25 25 26 26 25 26 26 26 27 27 28 28 28 29 30
9 8 8 7 6 5 5 5 6 7 8 10 11 13 15 17 19 20 21 22 23 23 24 24 25 25 25 26 26 27 27 27 26 27 27 28 29 29 29 29 30 31
6 6 5 5 6 6 6 6 7 8 9 11 12 14 16 18 20 22 23 23 24 24 24 24 25 25 25 25 26 26 27 27 27 27 27 28 29 30 30 29 30 31
4 3 3 3 4 5 6 8 9 10 11 13 14 16 18 20 22 23 24 24 25 25 25 24 24 25 25 25 24 24 25 26 27 27 27 27 28 28 29 29 29 30
5 3 1 1 2 4 7 9 11 13 14 15 17 19 21 23 24 25 25 26 26 25 25 24 24 24 25 24 24 24 24 25 26 26 26 27 27 27 27 27 28 29
7 6 5 4 4 6 8 10 13 15 16 17 19 20 22 24 25 26 26 27 27 26 26 25 25 25 25 24 25 25 26 26 26 26 26 27 27 27 27 27 27 29
10 9 7 6 6 7 9 11 13 16 17 18 19 21 22 24 26 27 27 27 27 27 26 26 26 26 25 25 26 26 27 27 27 28 28 28 28 29 29 29 29 29
13 11 10 8 7 8 9 12 14 17 18 19 20 22 23 25 26 27 28 28 28 27 27 27 27 26 25 26 26 27 27 28 28 29 30 31 32 32 31 30 30 30
16 14 12 10 9 9 11 14 16 18 19 21 22 23 25 26 26 27 28 28 28 28 28 27 27 26 25 25 25 26 27 28 28 28 29 31 32 33 32 30 29 29
18 15 13 11 10 11 13 15 17 19 21 22 24 25 26 27 28 28 29 29 29 29 29 28 27 26 25 24 24 24 25 26 27 27 27 27 28 30 31 29 26 25
19 16 14 12 11 12 14 16 18 20 22 24 25 26 27 28 29 29 29 29 30 30 30 29 28 27 26 26 24 22 22 23 24 24 24 22 22 25 27 26 23 22
19 17 14 12 12 13 14 16 19 21 22 24 25 27 28 29 29 30 30 30 30 30 30 30 30 29 27 27 25 22 20 20 20 21 22 20 20 21 23 23 23 22
19 16 14 13 13 14 15 17 20 21 22 24 26 27 28 29 29 30 30 30 30 31 31 31 31 30 28 26 25 23 20 20 20 20 21 21 21 21 22 21 22 22
19 16 15 14 14 15 17 18 20 21 22 24 25 27 28 29 29 30 30 30 30 30 31 32 31 30 28 26 24 22 20 20 20 21 21 22 21 21 21 20 19 21
18 16 15 14 14 16 17 18 19 21 22 24 25 26 27 28 28 29 29 29 30 30 31 32 31 29 27 26 24 22 21 20 21 21 21 22 22 20 19 19 19 21
17 16 14 14 15 17 18 18 19 21 22 24 25 25 26 27 27 28 29 29 29 30 31 32 32 29 27 26 24 22 21 21 21 21 21 22 22 21 20 19 18 20
16 15 15 15 16 17 18 19 20 21 22 23 25 26 26 27 28 28 29 29 30 30 30 32 32 29 26 26 24 22 22 22 22 23 23 23 23 23 22 20 18 20
15 15 15 15 16 17 18 19 20 21 22 23 24 26 27 27 28 30 30 30 30 30 30 31 32 29 26 25 24 21 20 22 24 26 27 27 26 26 25 22 21 23
15 14 15 15 17 18 19 20 21 22 22 23 24 25 27 28 28 30 31 31 30 30 29 29 31 30 26 25 24 21 20 22 25 27 29 29 27 28 28 27 28 30
14 14 15 16 17 19 19 20 21 22 23 23 24 25 26 28 28 29 31 32 31 30 30 28 29 29 27 25 24 21 20 22 25 27 29 30 30 31 32 33 33 34

ECMWFNIL_925_spd_033.txt.gz
Wind_Speed
18 18 19 19 19 18 18 17 17 17 18 18 17 17 16 15 14 13 13 13 13 14 14 14 15 15 15 15 16 16 16 16 16 16 15 16 15 15 15 14 13 14
17 17 17 17 18 17 16 16 15 15 16 16 15 14 13 12 12 11 12 12 12 13 14 14 15 15 16 16 17 17 17 17 17 17 16 16 16 15 15 16 15 15
16 16 15 15 16 15 15 14 14 14 14 13 12 12 11 11 11 12 12 13 14 15 16 17 17 18 19 19 20 20 20 20 20 20 20 19 19 18 18 18 17 17
15 14 14 14 14 14 12 12 12 12 12 11 11 11 11 11 12 13 14 15 16 17 18 18 19 19 20 20 21 21 21 21 21 21 22 21 21 22 22 22 22 22
14 13 13 13 12 12 10 10 11 11 10 10 10 10 10 11 12 13 14 15 15 16 17 17 18 18 19 19 20 20 20 21 21 21 22 22 22 23 23 23 24 24
13 12 11 11 11 10 9 9 9 8 7 7 7 7 8 9 10 11 13 14 15 16 16 17 17 18 18 19 19 20 20 20 21 21 22 23 23 23 23 24 25 25
12 10 10 9 9 8 7 7 6 5 5 5 5 6 7 8 9 11 12 13 14 16 17 17 18 18 19 19 20 20 20 20 21 22 22 23 24 24 24 25 25 26
11 10 9 8 7 7 6 6 5 4 4 4 5 6 7 8 10 11 12 14 15 16 17 17 18 18 19 19 19 20 20 20 21 22 23 24 24 25 25 25 26 26
10 9 9 7 7 6 6 6 5 4 4 5 6 7 8 9 11 12 13 14 15 16 17 17 18 18 18 18 18 19 19 20 20 21 22 23 23 24 25 24 25 26
10 9 8 7 7 6 5 5 4 4 5 6 7 8 9 10 11 13 14 15 16 17 17 18 18 19 18 18 18 18 19 19 20 20 21 21 22 23 23 23 23 25
10 10 9 8 7 5 3 2 2 3 5 6 7 8 10 11 12 14 15 16 17 18 19 19 19 20 19 19 19 19 19 20 20 21 21 21 21 21 21 21 22 23
12 12 10 8 6 5 3 2 1 3 5 7 8 9 11 12 13 15 16 17 18 19 20 20 20 20 20 20 20 20 20 21 21 21 21 21 22 21 21 21 21 22
15 13 11 9 8 7 6 5 4 4 5 7 8 9 10 12 14 15 17 18 19 19 20 20 20 20 20 20 20 20 21 21 21 22 22 22 23 23 22 21 21 21
16 14 13 12 11 10 9 8 7 7 7 7 9 10 11 13 15 16 18 19 20 20 20 21 21 20 20 20 20 21 21 21 22 22 23 23 23 23 23 22 22 22
18 17 16 15 14 13 12 11 10 8 8 9 10 11 12 14 16 18 19 20 21 22 22 22 21 20 20 20 20 20 20 21 22 22 23 23 23 23 23 23 23 23
21 20 19 18 17 16 15 14 12 10 10 11 11 12 14 15 17 18 20 21 22 23 23 23 22 21 20 20 18 18 19 20 22 22 22 23 24 24 23 22 23 23
24 23 22 21 20 18 17 15 13 12 12 12 12 13 14 16 18 19 21 22 23 23 24 24 23 22 20 20 18 17 17 18 20 21 21 21 22 23 23 22 22 24
26 26 25 24 22 20 18 16 14 13 13 13 13 14 16 17 18 20 21 22 23 24 24 24 23 22 20 19 18 17 16 16 17 18 20 20 19 20 22 22 23 24
28 27 26 26 24 21 19 17 15 14 13 14 14 16 17 18 19 21 22 23 24 24 25 25 24 22 20 19 18 17 16 15 16 17 18 20 20 21 23 22 22 22
28 28 27 27 25 22 19 17 16 15 14 15 16 17 18 19 20 21 22 23 24 24 25 25 24 22 21 20 18 18 16 14 16 18 20 23 23 22 22 20 17 16
28 28 28 28 25 22 20 18 16 15 15 16 17 17 18 19 21 22 23 23 24 24 25 25 24 21 20 19 18 18 16 15 17 20 21 23 21 19 19 17 15 14
29 29 29 28 25 22 19 18 16 15 15 16 17 18 19 20 21 23 24 24 24 25 25 25 24 21 20 19 18 17 16 16 19 20 19 19 19 17 17 17 15 15
29 29 29 27 24 21 19 18 16 16 16 17 18 19 20 21 22 23 24 25 25 25 26 27 25 22 20 19 18 17 16 17 18 19 17 18 19 18 18 17 16 16
29 29 27 25 22 20 18 17 16 16 17 18 18 20 21 21 23 24 24 25 25 25 25 26 26 23 21 19 18 16 16 16 18 19 19 20 21 19 17 17 18 19
27 26 25 22 20 19 17 16 16 16 17 18 18 19 21 22 23 25 25 25 24 25 25 25 25 24 21 19 18 16 15 16 17 19 20 21 20 19 20 22 24 26
25 24 22 21 19 18 16 16 16 16 17 18 18 19 21 22 23 24 25 25 24 24 24 23 24 24 22 19 18 16 15 15 17 19 21 22 22 24 28 31 30 29

ECMWFNIL_925_spd_036.txt.gz
Wind_Speed
23 22 21 21 20 19 18 17 16 15 15 15 15 15 14 14 13 13 13 13 13 13 13 13 13 13 14 14 14 14 14 13 13 13 13 13 12 12 12 12 12 13
21 20 20 19 19 18 16 15 14 14 14 13 13 13 12 12 12 11 11 11 12 12 13 13 14 15 15 16 16 16 16 16 16 16 16 15 14 14 14 14 14 14
20 19 18 18 18 17 16 14 14 13 12 12 12 11 11 10 10 11 11 12 13 14 15 16 16 17 18 18 19 19 19 19 19 19 19 19 18 18 18 18 18 18
19 18 17 17 17 16 15 14 13 12 11 10 10 9 9 10 11 11 12 13 14 15 16 17 17 18 18 18 18 18 18 18 18 18 18 18 19 18 19 19 19 20
19 18 17 17 16 15 14 13 12 11 9 9 9 9 10 11 12 12 13 14 15 15 16 16 16 17 17 17 17 17 17 17 17 17 17 17 18 18 18 18 19 19
19 18 17 16 15 14 13 11 10 9 8 8 8 9 9 10 10 11 11 12 13 13 14 14 15 15 16 16 16 16 16 16 17 17 17 17 17 17 18 18 18 18
19 18 17 16 15 13 11 10 9 8 8 7 7 7 6 7 7 8 9 9 10 11 12 13 14 14 15 15 16 16 16 16 17 17 17 17 17 17 18 18 18 18
20 19 17 16 14 12 10 9 9 8 7 6 5 4 4 4 5 6 7 8 9 11 12 13 14 14 15 15 15 15 16 16 16 16 16 17 17 17 17 17 18 17
20 19 17 15 14 13 11 10 10 8 7 6 5 3 2 3 4 5 7 8 9 11 12 13 14 14 14 15 15 15 15 15 15 15 15 16 16 16 17 17 17 17
21 19 18 16 15 14 13 12 11 9 8 6 5 3 1 1 3 4 6 8 9 10 12 13 14 14 14 15 15 15 15 15 15 15 15 15 16 16 16 16 16 16
22 21 19 18 17 16 14 13 11 10 8 6 5 2 1 1 2 4 5 7 9 11 12 14 14 15 15 15 15 15 15 15 15 15 15 15 15 15 16 15 14 14
22 21 20 19 18 17 15 14 12 10 8 6 4 3 2 2 3 4 6 7 9 11 13 14 15 15 16 16 16 16 16 16 16 15 16 16 16 16 15 14 14 14
22 21 20 19 18 18 16 15 13 11 9 6 5 4 4 4 4 5 6 8 9 11 13 14 14 15 15 16 16 16 16 16 16 16 16 16 16 16 14 14 14 13
22 21 20 19 19 18 17 16 14 12 10 7 6 6 6 6 6 7 7 8 10 11 12 13 14 14 14 15 15 16 15 15 16 16 15 16 16 15 14 14 14 14
23 22 21 20 20 19 18 17 15 13 11 9 8 8 7 7 8 8 9 9 11 12 13 13 14 14 14 14 14 14 14 14 15 16 16 16 15 14 14 14 14 14
25 23 22 21 21 20 20 18 16 14 12 11 10 10 9 9 9 10 10 11 12 13 14 14 14 14 14 14 14 13 13 14 15 16 16 16 14 13 14 14 13 13
26 24 23 23 23 23 22 20 18 16 14 13 13 12 11 11 11 11 11 12 13 13 14 14 14 14 14 14 13 12 13 14 15 17 17 16 14 13 13 14 14 14
28 27 25 25 25 25 23 21 20 18 16 15 14 14 13 12 12 13 13 14 14 14 15 15 15 15 15 14 13 12 12 13 15 17 17 16 14 13 14 15 16 16
31 29 28 28 27 27 25 23 22 20 18 17 16 15 15 14 14 14 14 15 15 15 16 16 15 15 15 14 13 13 12 13 15 17 16 15 15 15 15 16 17 17
32 31 30 30 29 29 28 26 24 22 20 19 18 17 16 15 15 15 16 16 16 16 17 17 15 15 15 14 13 13 12 13 15 16 15 16 17 16 16 16 16 16
33 32 31 31 31 30 29 28 26 24 22 21 19 17 17 16 16 17 17 17 16 17 18 18 15 14 14 14 12 12 12 13 15 17 18 19 19 16 14 15 15 15
34 33 32 32 32 31 31 30 28 26 23 21 19 18 17 17 17 18 18 17 17 17 18 18 16 14 13 13 12 11 12 14 16 17 17 17 17 15 13 12 12 13
34 33 33 33 33 32 32 31 29 26 23 21 20 19 18 18 18 19 18 18 18 18 19 19 16 13 13 12 11 11 12 13 15 14 14 14 14 14 13 13 13 13
34 33 33 32 32 32 32 31 28 25 23 22 20 19 19 19 19 19 19 19 19 19 19 19 17 14 12 12 11 10 11 13 14 13 12 13 14 14 13 13 14 15
33 32 31 31 32 32 31 29 27 25 23 22 21 20 20 20 19 20 20 20 20 19 18 18 18 15 12 11 11 10 11 11 12 12 12 13 13 13 13 14 16 18
29 29 30 30 31 30 29 28 26 25 24 22 21 20 20 20 20 20 21 21 20 19 18 17 17 15 13 12 11 10 10 10 11 12 12 12 13 14 16 19 20 19

ECMWFNIL_925_spd_042.txt.gz
Wind_Speed
28 28 28 28 27 27 26 25 24 24 24 22 21 20 19 17 16 14 13 12 11 11 11 11 10 10 10 9 10 11 12 13 13 11 11 12 11 11 11 10 10 9
28 28 29 28 27 26 25 25 24 24 23 22 20 19 18 16 15 13 13 12 11 11 11 10 10 11 10 10 12 12 13 15 15 14 14 13 13 12 12 11 11 10
29 28 28 27 27 26 25 25 24 23 23 21 20 18 17 16 14 13 12 12 11 11 10 10 11 12 12 13 14 13 14 15 15 14 14 13 12 13 13 12 11 10
29 28 27 26 26 26 26 25 24 23 22 21 19 18 17 16 15 14 13 12 11 10 11 11 12 12 12 12 12 12 13 13 13 13 12 12 12 13 13 12 12 11
28 27 27 26 26 26 26 25 24 23 21 20 19 18 16 16 15 14 12 11 11 11 11 11 11 11 10 10 10 11 11 11 11 11 12 12 11 12 12 12 12 12
28 27 27 27 27 26 25 24 24 22 21 20 19 18 16 15 14 13 12 12 11 11 11 10 10 9 10 9 10 10 10 10 11 11 11 11 11 11 11 12 12 12
28 28 28 27 27 26 25 24 23 22 21 20 19 18 16 15 14 13 13 12 12 11 10 10 9 9 9 9 9 9 9 10 10 11 11 11 11 11 11 11 12 12
29 29 28 27 27 26 25 24 23 22 21 20 19 18 16 15 14 14 14 13 12 11 9 9 8 7 7 7 7 7 8 9 10 11 11 11 11 12 11 12 12 12
29 29 28 27 27 26 25 24 24 22 21 20 19 18 17 16 15 15 15 13 12 10 8 7 6 5 4 4 5 6 7 8 9 10 11 12 12 12 12 12 12 12
29 29 28 28 27 26 26 25 24 22 21 20 19 18 18 17 16 15 15 13 11 9 7 6 4 3 2 3 4 5 7 8 9 10 11 12 13 13 13 13 13 13
30 29 29 29 28 27 26 25 24 24 22 21 20 19 18 18 17 16 15 13 10 8 6 5 3 1 1 2 4 5 7 8 9 11 12 12 13 13 13 13 13 13
30 30 30 29 28 27 27 26 26 25 23 22 21 20 20 19 18 16 15 12 10 8 6 4 3 1 1 3 4 5 7 8 9 11 12 13 14 14 14 14 14 13
31 31 31 30 28 28 27 27 27 25 24 23 22 21 21 20 18 17 15 12 10 8 6 5 3 2 3 4 5 6 7 9 10 11 13 14 15 15 15 15 15 14
32 31 31 30 29 28 29 28 27 26 25 24 23 22 21 20 18 17 15 12 10 9 7 6 5 4 4 5 6 7 8 10 11 12 13 15 16 16 16 16 16 15
32 31 31 30 29 29 29 29 28 27 26 25 24 23 22 20 19 17 15 13 11 10 8 7 6 6 6 7 8 8 10 11 12 13 14 16 17 17 18 17 16 16
32 31 31 31 30 29 29 29 29 28 28 27 26 24 23 21 20 18 16 14 13 11 10 8 8 8 8 8 9 10 11 13 14 14 15 16 18 19 19 18 17 16
32 32 32 32 31 30 29 30 30 30 29 28 27 25 23 22 21 19 17 15 14 12 11 10 9 9 9 10 10 11 13 14 15 16 16 17 18 19 20 20 18 17
32 32 33 33 33 31 31 31 31 31 30 29 28 26 25 23 22 20 19 17 15 13 13 12 10 11 11 11 12 13 14 16 16 17 17 18 18 19 20 19 19 18
33 33 34 34 34 33 32 31 31 32 32 31 29 28 26 25 23 22 20 19 17 16 15 13 12 12 13 13 13 13 14 16 17 18 18 19 19 19 20 19 18 19
34 35 35 34 33 33 32 32 33 33 32 31 30 29 27 26 25 24 22 21 20 18 17 15 14 14 14 14 14 15 15 16 17 18 19 19 20 20 19 19 18 18
35 35 35 34 33 33 33 33 33 33 33 32 31 30 29 28 27 25 24 23 22 20 19 17 16 15 15 16 16 15 16 16 18 19 19 20 20 20 19 18 17 17
35 35 34 34 34 34 34 34 34 34 34 33 31 30 30 29 27 26 25 25 24 22 21 20 18 17 17 17 17 16 17 18 19 19 20 20 20 20 20 18 18 18
35 35 35 35 35 35 35 36 36 35 34 33 32 32 31 30 29 28 28 27 26 24 23 22 20 18 18 18 17 17 17 19 19 20 20 21 21 20 20 18 18 17
35 36 35 35 35 36 37 37 36 35 34 34 34 33 33 32 31 30 29 28 27 25 24 23 22 20 19 19 18 17 18 19 20 20 20 21 21 20 19 17 17 16
35 36 36 36 37 37 37 37 36 35 35 34 34 33 33 32 31 30 30 29 28 26 25 25 24 22 20 19 18 17 18 19 20 20 20 21 21 20 18 17 16 15
34 35 36 37 37 37 37 36 35 34 34 34 33 33 32 32 31 30 30 29 28 28 27 26 26 23 20 19 18 17 17 19 20 20 21 21 20 18 17 17 16 15

ECMWFNIL_925_spd_048.txt.gz
Wind_Speed
41 42 41 40 40 40 40 40 39 38 37 36 35 34 32 30 29 27 25 24 23 22 22 21 20 19 19 18 17 16 16 15 15 14 12 11 10 9 8 7 6 5
41 41 40 40 40 39 39 39 38 37 36 35 34 33 32 30 28 27 25 25 23 22 21 20 19 19 19 18 17 16 15 15 14 13 11 11 10 8 7 6 5 4
41 41 40 40 40 40 39 38 37 36 36 35 34 33 31 30 28 27 25 24 23 22 21 20 20 19 18 17 16 15 15 14 14 13 11 10 9 7 6 5 4 3
41 41 40 40 39 39 39 38 37 36 36 35 34 32 31 30 29 27 26 24 23 22 22 21 20 19 18 17 16 15 15 14 13 12 10 10 8 7 5 3 2 1
41 41 40 40 39 39 39 38 38 37 36 35 34 32 31 30 29 28 26 24 23 22 22 21 20 19 18 17 15 15 14 13 13 11 10 9 8 6 5 2 1 1
41 41 40 40 39 39 38 38 38 37 36 35 34 32 31 31 29 27 26 25 24 23 23 22 21 20 18 17 15 14 13 13 13 12 10 9 8 6 5 2 1 2
42 41 41 40 39 39 38 38 37 37 36 35 34 33 32 31 29 27 26 25 25 24 23 23 22 20 19 17 16 14 14 13 12 11 10 9 8 6 5 3 1 2
43 42 41 40 40 39 39 38 38 36 36 35 34 33 32 30 29 27 26 26 25 24 24 23 22 20 19 17 16 15 15 13 12 11 10 9 8 6 5 3 2 2
43 42 41 40 40 40 39 39 38 37 36 36 35 34 32 30 28 28 27 26 26 25 24 23 22 20 19 18 16 15 15 14 12 11 10 9 7 6 4 3 2 2
42 42 41 41 41 41 40 39 38 38 37 36 35 34 32 30 29 28 28 27 27 26 25 24 22 21 20 19 17 15 14 13 12 11 10 8 7 5 4 3 2 2
42 42 42 42 42 41 41 40 39 39 38 37 36 34 32 31 31 30 29 29 28 27 26 24 22 21 21 20 18 16 13 12 11 11 9 8 6 5 4 3 2 3
43 43 43 43 42 42 41 41 40 40 39 38 37 35 34 33 33 32 31 31 29 27 25 24 23 22 22 20 19 17 15 13 12 10 9 8 6 5 4 4 4 4
44 44 44 43 43 42 41 41 41 41 40 39 37 36 35 35 34 34 33 31 29 28 26 25 24 23 22 20 18 17 15 14 12 11 10 9 7 6 5 5 5 5
44 43 43 43 43 42 41 41 41 42 41 40 38 37 37 36 35 35 34 32 30 28 27 26 25 25 24 21 19 18 16 15 13 12 11 10 9 8 7 7 7 7
43 42 43 43 42 42 41 41 42 43 42 40 39 38 37 36 35 35 34 33 31 29 28 28 27 26 24 22 20 19 18 16 15 14 13 11 10 9 9 9 8 8
41 42 42 42 42 42 42 42 42 43 42 41 40 39 38 37 36 36 35 34 32 31 30 30 29 27 25 22 20 19 18 17 16 16 15 13 12 11 11 10 10 10
40 41 41 41 42 42 42 42 42 42 42 41 40 39 38 38 37 37 36 34 33 33 32 32 31 28 25 23 22 20 19 18 18 17 16 15 14 13 12 12 12 12
39 40 40 41 41 41 42 41 41 41 41 41 40 40 39 39 38 38 37 35 35 34 34 33 31 29 27 25 23 22 21 20 19 19 18 17 16 15 14 14 14 14
38 39 39 40 41 41 41 40 40 41 41 41 41 40 40 39 39 38 37 37 36 36 35 34 32 30 28 26 25 24 23 22 21 20 20 19 17 17 17 16 16 15
36 37 38 39 40 40 40 40 40 41 41 41 41 40 40 40 39 39 38 38 38 37 37 35 33 31 29 27 26 25 24 23 23 22 22 21 19 19 19 18 18 17
35 37 38 38 39 39 39 39 40 41 41 41 41 40 40 40 40 39 39 39 39 38 38 37 34 31 29 28 27 26 25 25 25 24 24 23 22 21 21 21 20 19
36 37 37 38 38 38 38 39 40 41 41 40 40 39 39 39 39 39 39 40 40 40 39 38 35 32 31 30 29 27 26 27 27 27 26 25 24 24 24 23 22 21
37 37 37 37 37 38 39 40 41 41 40 40 39 39 39 40 40 39 40 40 41 41 40 39 37 34 33 32 31 29 28 29 29 29 28 28 27 26 26 25 24 23
36 37 37 37 38 39 40 40 40 39 40 40 40 40 40 40 40 40 40 41 41 41 41 40 39 36 34 33 33 31 30 31 31 30 30 30 30 30 29 28 26 26
35 36 37 37 38 39 39 39 39 39 39 39 39 40 39 39 39 39 40 41 41 41 41 40 40 38 36 35 35 33 32 33 33 32 32 33 33 33 33 31 29 29
34 35 36 37 37 38 38 38 38 38 37 38 38 38 37 37 38 38 40 40 41 41 41 41 41 40 38 37 36 35 35 34 34 35 35 36 36 35 35 33 32 32